Location: Caltech
(34.1382°N, 118.1253°W)
Time: 20:55:53
(UTC-07:00)

Cosmos 2251 Rocket - Visible Passes

Search period start: 24 April 2014 00:00
Search period end: 04 May 2014 00:00
Orbit: 767 x 792 km, 74.0° (Epoch: 24 April)

Date Brightness Start Highest point End Pass type
(mag) Time Alt. Az. Time Alt. Az. Time Alt. Az.
24 Apr 6.1 05:10:56 10° N 05:15:13 25° ENE 05:19:30 10° ESE visible
25 Apr 6.8 04:38:20 10° NNE 04:41:25 16° ENE 04:44:30 10° E visible
25 Apr 7.1 20:58:27 10° WNW 21:00:07 11° WNW 21:01:46 10° NW visible
26 Apr 6.6 20:22:38 10° WSW 20:26:15 19° WNW 20:29:53 10° NNW visible
27 Apr 4.5 05:11:49 10° N 05:16:58 53° ENE 05:22:08 10° SSE visible
28 Apr 5.4 04:38:36 10° N 04:43:19 32° ENE 04:48:01 10° SE visible
29 Apr 6.2 04:05:42 10° NNE 04:09:34 20° ENE 04:13:26 10° ESE visible
30 Apr 6.6 03:33:30 10° NE 03:35:44 13° ENE 03:37:57 10° E visible
30 Apr 3.5 05:13:16 10° NNW 05:18:31 70° WSW 05:23:47 10° S visible
01 May 3.8 04:39:42 10° NNW 04:44:59 71° ENE 04:50:16 10° SSE visible
02 May 4.7 04:06:21 10° N 04:11:22 43° ENE 04:16:23 10° SE visible
03 May 5.6 03:33:15 10° N 03:37:40 26° ENE 03:42:05 10° ESE visible
03 May 4.3 05:15:19 10° NW 05:19:54 31° W 05:24:30 10° SSW visible
